This is the latest recevied weather packets stored in our database for station/object KM4KBD. If no packets are shown the sender has not sent any weather packets the latest 10 day(s).
| Time | Temp. | Humidity | Pressure | Rain* | Wind** | Luminosity | Snow |
|---|---|---|---|---|---|---|---|
| 1777990753 | 19.44° C | 61% | 1017.7 hPa | 0 mm | - | 263 W/m² | - |
| 1777990450 | 19.44° C | 62% | 1017.9 hPa | 0 mm | - | 216 W/m² | - |
| 1777989844 | 19.44° C | 60% | 1017.9 hPa | 0 mm | - | 240 W/m² | - |
| 1777989541 | 19.44° C | 59% | 1018 hPa | 0 mm | - | 267 W/m² | - |
| 1777989237 | 19.44° C | 60% | 1018 hPa | 0 mm | - | 248 W/m² | - |
| 1777988933 | 19.44° C | 60% | 1017.9 hPa | 0 mm | - | 259 W/m² | - |
| 1777988630 | 19.44° C | 59% | 1017.9 hPa | 0 mm | - | 266 W/m² | - |
| 1777988327 | 19.44° C | 60% | 1017.9 hPa | 0 mm | - | 271 W/m² | - |
| 1777988024 | 18.89° C | 60% | 1018 hPa | 0 mm | - | 262 W/m² | - |
| 1777987719 | 18.89° C | 61% | 1018 hPa | 0 mm | - | 220 W/m² | - |
| 1777987417 | 18.89° C | 60% | 1018 hPa | 0 mm | - | 231 W/m² | - |
| 1777987113 | 18.89° C | 60% | 1018 hPa | 0 mm | - | 266 W/m² | - |
| 1777986811 | 18.89° C | 59% | 1018.3 hPa | 0 mm | - | 276 W/m² | - |
| 1777986509 | 18.89° C | 61% | 1018.1 hPa | 0 mm | - | 259 W/m² | - |
| 1777986207 | 18.89° C | 61% | 1018 hPa | 0 mm | - | 241 W/m² | - |
| 1777985903 | 18.89° C | 61% | 1018 hPa | 0 mm | - | 187 W/m² | - |
| 1777985601 | 18.89° C | 61% | 1017.9 hPa | 0 mm | - | 162 W/m² | - |
| 1777985297 | 18.33° C | 61% | 1017.9 hPa | 0 mm | - | 161 W/m² | - |
| 1777984994 | 18.33° C | 61% | 1017.8 hPa | 0 mm | - | 164 W/m² | - |
| 1777984690 | 18.33° C | 63% | 1017.7 hPa | 0 mm | - | 149 W/m² | - |
| 1777984387 | 17.78° C | 64% | 1017.9 hPa | 0 mm | - | 138 W/m² | - |
| 1777984083 | 17.22° C | 66% | 1017.8 hPa | 0 mm | - | 138 W/m² | - |
| 1777983781 | 17.22° C | 67% | 1017.8 hPa | 0 mm | - | 104 W/m² | - |
| 1777983477 | 16.67° C | 67% | 1017.7 hPa | 0 mm | - | 89 W/m² | - |
| 1777983174 | 16.67° C | 68% | 1017.8 hPa | 0 mm | - | 88 W/m² | - |
* Rain latest hour (hover to see other rain measurements)
** Current wind speed in m/s (hover to see current wind gust speed)